Regional Weather Roundup
Issued by NWS

Home | Current Version | Previous Version | Graphics & Text | Print | Product List | Glossary Off
Versions: 1 2 3 4 5 6 7 8 9 10 11 12 13 14 15 16 17 18 19 20 21 22 23 24 25 26 27 28 29 30 31 32 33 34 35 36 37 38 39 40 41 42 43 44 45 46 47 48 49 50

911
ASUS43 KMPX 161601
RWRMN
WEATHER ROUNDUP FOR MINNESOTA
NATIONAL WEATHER SERVICE TWIN CITIES/CHANHASSEN MN
1000 AM CST MON JAN 16 2017


NOTE: "FAIR" INDICATES FEW OR NO CLOUDS BELOW 12,000 FEET WITH NO
SIGNIFICANT WEATHER AND/OR OBSTRUCTIONS TO VISIBILITY. N/A MEANS
CURRENT SKY AND/OR WEATHER CONDITIONS ARE NOT AVAILABLE.

MNZ060>063-068>070-161700-
   Twin Cities Metro

CITY           SKY/WX    TMP DP  RH WIND       PRES   REMARKS
TWIN CITIES    CLOUDY    21  15  78 E5        30.17S WCI  15
ST PAUL        PTSUNNY   18  18 100 CALM      30.19S
CRYSTAL        CLOUDY    15  12  88 CALM      30.16S
BLAINE         PTSUNNY   19  18  93 CALM      30.16S
LAKEVILLE      CLOUDY    16  16 100 CALM      30.16S
EDEN PRAIRIE   CLOUDY    22  16  78 SE3       30.15S HAZE
SOUTH ST PAUL  CLOUDY    18  15  87 CALM      30.18R FOG
LAKE ELMO      FAIR      14  12  92 CALM      30.18S
$$
MNZ001>005-007-008-013>017-022>024-027-028-161700-
   Northwest Minnesota

CITY           SKY/WX    TMP DP  RH WIND       PRES   REMARKS
BEMIDJI        CLOUDY    15  13  93 CALM      30.05F
HALLOCK        CLOUDY     7   1  78 SE10      30.05R WCI  -8
ROSEAU         CLOUDY     7   1  78 S5        30.05S WCI  -2
WARROAD        CLOUDY     9   3  78 CALM      30.05S
THIEF RVR FALL CLOUDY    13   8  81 S12       30.07S WCI  -1
CROOKSTON      CLOUDY     9   5  85 S7        30.09S FOG     WCI  -3
FOSSTON        CLOUDY    18  12  79 S14       30.06F WCI   4
DETROIT LAKES  CLOUDY    12  10  92 CALM      30.09R FOG
MOORHEAD       CLOUDY    10   7  85 S10       30.10S FOG     WCI  -3
PARK RAPIDS    LGT SNOW  10   6  84 SE6       30.07F FOG     WCI   0
MAHNOMEN       FAIR      14  11  88 S8        30.06F WCI   3
$$
MNZ006-009>011-018-025>026-161700-
   North Central Minnesota

CITY           SKY/WX    TMP DP  RH WIND       PRES   REMARKS
BAUDETTE       CLOUDY     7   3  84 E6        30.05R WCI  -3
FLAG ISLAND    CLOUDY     3   0  85 SE5       30.05R WCI  -6
INTL FALLS     CLOUDY    15  12  88 CALM      30.07R
WASKISH        CLOUDY    21  18  86 SW3       30.07R
BIG FORK       CLOUDY    16  14  93 S3        30.07F
LONGVILLE      CLOUDY    12  10  92 CALM      30.09S FOG
GRAND RAPIDS   CLOUDY    18  16  92 SE3       30.11R FOG
CRANE LAKE     CLOUDY    10   9  92 S3        30.11S
ORR            CLOUDY    18  12  79 CALM      30.06R
COOK           CLOUDY    18  16  93 CALM      30.09S
WALKER         FAIR      17  14  86 CALM      30.07S FOG
$$
MNZ012-019>021-037-161700-
   Northeast Minnesota

CITY           SKY/WX    TMP DP  RH WIND       PRES   REMARKS
DULUTH         CLOUDY    19  17  92 CALM      30.10S
ELY            CLOUDY    12  10  92 CALM      30.10S
HIBBING        CLOUDY     4   2  91 CALM      30.10S FOG
EVELETH        FOG        5   1  83 CALM      30.12S VSB 3/4
DULUTH HARBOR  MOSUNNY   18  14  86 CALM      30.17S FOG
TWO HARBORS    SUNNY     21  18  86 SW3       30.10F
SILVER BAY     CLOUDY    19  19 100 CALM      30.10S
GRAND MARAIS     N/A     32  20  61 SW5       30.14  WCI  27
G MARAIS ARPRT SUNNY     25  12  58 W3        30.08R
$$
MNZ029>031-032-039>041-046>048-054>057-064-161700-
   West Central Minnesota

CITY           SKY/WX    TMP DP  RH WIND       PRES   REMARKS
FERGUS FALLS   CLOUDY    16  12  86 S6        30.15R WCI   7
WHEATON        CLOUDY    14  12  92 CALM      30.11F
MORRIS         CLOUDY    12   9  85 SE7       30.09S WCI   2
ALEXANDRIA     CLOUDY    17  16  95 CALM      30.09S FOG
ELBOW LAKE     FAIR      16  12  86 SE5       30.10S FOG     WCI   8
WADENA         CLOUDY     9   7  92 CALM      30.08R FOG
GLENWOOD       CLOUDY    12  10  92 SE5       30.10S WCI   4
APPLETON       CLOUDY    10   7  85 CALM      30.10F
ORTONVILLE     CLOUDY    12   9  85 CALM      30.08F
MADISON        CLOUDY    12   9  85 CALM      30.09F
WILLMAR        FAIR      12  10  92 CALM      30.12F FOG
$$
MNZ033>034-036-042>043-049>051-058-059-161700-
   Central Minnesota

CITY           SKY/WX    TMP DP  RH WIND       PRES   REMARKS
ST CLOUD       CLOUDY    13  13 100 CALM      30.13F FOG
SAUK CENTRE    FAIR       6   3  90 CALM      30.11S FOG
PAYNESVILLE    MOSUNNY   19  19 100 CALM      30.12F
AITKIN         CLOUDY    18  12  79 CALM      30.09F
PINE RIVER     CLOUDY     9   7  92 CALM      30.11F FOG
BRAINERD       CLOUDY    15  14  95 S7        30.11S FOG     WCI   5
STAPLES        CLOUDY    12  10  92 S3        30.09R FOG
LONG PRAIRIE   FAIR       9   7  92 CALM      30.10F FOG
LITTLE FALLS   CLOUDY     9   5  85 SE3       30.13S FOG
LITCHFIELD     CLOUDY    19  19 100 CALM      30.13S
BUFFALO        CLOUDY    19  17  92 CALM      30.16S
MAPLE LAKE     CLOUDY    20  19  97 CALM      30.15S FOG
HUTCHINSON     CLOUDY    23  20  90 E6        30.14S WCI  16
$$
MNZ037-044-045-052-053-161700-
   East Central Minnesota

CITY           SKY/WX    TMP DP  RH WIND       PRES   REMARKS
PRINCETON      CLOUDY    18  16  93 CALM      30.14F FOG
MORA           CLOUDY     9   5  85 CALM      30.17S
CAMBRIDGE      MOSUNNY   18  12  79 CALM      30.14F HAZE
RUSH CITY        N/A     16  14  93 CALM      30.17S
MOOSE LAKE     CLOUDY    12  10  92 CALM      30.13S FOG
HINCKLEY       FAIR      12  10  92 CALM      30.16S FOG
CLOQUET        CLOUDY    19  16  86 CALM      30.11S FOG
MCGREGOR       CLOUDY    18  16  93 CALM      30.12S
$$
MNZ071>073-080-081-089-090-097-098-161700-
   Southwest Minnesota

CITY           SKY/WX    TMP DP  RH WIND       PRES   REMARKS
MONTEVIDEO     CLOUDY    18  16  93 CALM      30.12S
GRANITE FALLS  CLOUDY    19  17  92 CALM      30.13S
CANBY            N/A     19  14  81 CALM      30.10F
MARSHALL       CLOUDY    25  20  81 CALM      30.11R
REDWOOD FALLS  CLOUDY    24  19  81 SE6       30.12S WCI  17
OLIVIA         CLOUDY    25  21  86 SE5       30.11S WCI  19
PIPESTONE      CLOUDY    28  21  74 N6        30.05F WCI  22
WINDOM         CLOUDY    27  25  93 NE6       30.09S WCI  20
WORTHINGTON    CLOUDY    27  24  89 NE8       30.07S FOG     WCI  19
JACKSON        CLOUDY    27  27 100 NE8       30.08S FOG     WCI  18
TRACY          CLOUDY    26  21  84 CALM      30.10S
SLAYTON        CLOUDY    24  22  91 N5        30.09R WCI  18
$$
MNZ065>067-074>077-082>085-091>093-161700-
   South Central Minnesota

CITY           SKY/WX    TMP DP  RH WIND       PRES   REMARKS
MANKATO        CLOUDY    26  21  81 NE8       30.13F WCI  18
NEW ULM        CLOUDY    25  19  80 CALM      30.13R
ST JAMES       CLOUDY    25  21  86 NE6       30.13S WCI  18
FAIRMONT       CLOUDY    29  27  92 NE7       30.10S FOG     WCI  22
GLENCOE        CLOUDY    23  21  90 E5        30.14S FOG     WCI  17
FARIBAULT        N/A     21  18  86 NE3       30.14F
OWATONNA       CLOUDY    27  19  74 E6        30.12F WCI  20
WASECA         CLOUDY    25  21  86 NE6       30.14S WCI  18
ALBERT LEA     CLOUDY    30  28  93 SE8       30.10S FOG     WCI  23
$$
MNZ078>079-086>088-094>096-161700-
   Southeast Minnesota

CITY           SKY/WX    TMP DP  RH WIND       PRES   REMARKS
ROCHESTER      CLOUDY    27  24  89 E5        30.13F WCI  22
RED WING       MOSUNNY   16  12  86 SE5       30.18S FOG     WCI   9
STANTON        CLOUDY    19  14  82 CALM      30.15S
DODGE CENTER   CLOUDY    27  21  80 CALM      30.12S
WINONA         CLOUDY    23  19  86 CALM      30.20S
AUSTIN         CLOUDY    30  28  93 SE8       30.12R WCI  23
PRESTON        CLOUDY    28  26  93 E3        30.14R FOG
$$
ABBREVIATIONS USED IN REMARKS
   TC - TEMPERATURES IN CELSIUS
  WCI - WIND CHILL INDEX
   HX - HEAT INDEX
  VSB - VISIBILITY
$$




USA.gov is the U.S. government's official web portal to all federal, state and local government web resources and services.